Weather in Karasa

Russia / Republic of Tatarstan     54°44′21″N   50°40′42″E
temp.,
°C
wind,
m/s
gust,
m/s
humid.,
%
clouds,
%
prec.,
mm/h
press.,
hPa
HPBL,
m
6 march, sat
sat600:00−13wsw339615 0.0 101030
03:00−14sw34958 0.0 101138
06:00−11sw489699 0.3 1011238
09:00−10w599498 0.3 1013352
12:00−9wnw5790100 0.1 1014576
15:00−10wnw468999 0.1 1013567
18:00−14w339481 0.0 101422
21:00−16w229466 0.0 101420
7 march, sun
sun700:00−17wsw22961 0.0 101320
03:00−18sw22961 0.0 101320
06:00−19ssw229760 0.0 101220
09:00−14ssw239557 0.0 1012153
12:00−9ssw359196 0.1 1011465
15:00−9ssw569498 0.2 1009400
18:00−13s479898 0.1 1007136
21:00−10ssw6139398 0.1 1006496
8 march, mon
mon800:00−8s71394100 0.8 1001766
03:00−6ssw81594100 2.4 998947
06:00−5wsw71192100 1.8 997757
09:00−7wsw5108467 1.8 1000400
12:00−5ssw697948 0.0 1001638
15:00−5s5108265 0.0 999658
18:00−5sse4119695 0.4 996522
21:00−5wsw7137997 1.1 995635
9 march, tue
tue900:00−9sw9169369 0.3 996704
03:00−8w7149284 0.7 999652
06:00−11wsw61392100 0.1 1002523
09:00−10w61091100 0.3 1005598
12:00−9w6888100 0.1 1008689
15:00−10w5788100 0.2 1009744
18:00−14wnw3395100 0.1 101049
21:00−16w339798 0.1 101228
10 march, wed
wed1000:00−17w339892 0.0 101250
03:00−18wnw349894 0.1 101286
06:00−17wnw3597100 0.1 1013139
09:00−14nw4792100 0.2 1014429
12:00−13nw5689100 0.1 1015622
15:00−14nw5788100 0.1 1016721
18:00−18wnw3496100 0.1 101776
21:00−20nw3399100 0.1 101941